HAZ7508 RPLL-ZSPD

Flight info

Callsign HAZ7508
Flight time N/A
Altitude 36000
Route CAB2V CAB A461 NOMAN DCT SANKU DCT SOUSA V601 DOTMI/K0867S1095 A470 LJG B221 SHZ W58 BK BK91A
Aircraft B738/M-SDE2E3FGHIRWXY/LB1

Departure

Time 2026-05-07 12:04
Airport Ninoy Aquino International Airport (RPLL)

Arrival

Time N/A
Airport Shanghai Pudong International Airport (ZSPD)
Time Latitude Longitude Altitude Speed Heading
2026-05-07 11:26 14.51663 121.01687 56 ft 0 kts 200°
2026-05-07 11:42 14.51673 121.01691 56 ft 2 kts 200°
2026-05-07 11:43 14.51687 121.01696 56 ft 2 kts 201°
2026-05-07 11:43 14.51696 121.01700 56 ft 2 kts 200°
2026-05-07 11:43 14.51710 121.01702 57 ft 2 kts 180°
2026-05-07 11:43 14.51725 121.01701 57 ft 2 kts 167°
2026-05-07 11:44 14.51739 121.01696 57 ft 2 kts 152°
2026-05-07 11:44 14.51751 121.01688 57 ft 1 kts 137°
2026-05-07 11:44 14.51756 121.01683 57 ft 1 kts 132°
2026-05-07 11:44 14.51757 121.01681 57 ft 0 kts 133°
2026-05-07 11:50 14.51756 121.01682 57 ft 0 kts 133°
2026-05-07 11:50 14.51750 121.01688 57 ft 1 kts 133°
2026-05-07 11:50 14.51741 121.01699 57 ft 2 kts 133°
2026-05-07 11:50 14.51727 121.01714 57 ft 3 kts 134°
2026-05-07 11:51 14.51711 121.01730 57 ft 3 kts 135°
2026-05-07 11:51 14.51693 121.01753 57 ft 3 kts 120°
2026-05-07 11:51 14.51677 121.01775 57 ft 4 kts 142°
2026-05-07 11:51 14.51648 121.01781 57 ft 4 kts 188°
2026-05-07 11:52 14.51616 121.01766 57 ft 5 kts 217°
2026-05-07 11:52 14.51583 121.01736 57 ft 7 kts 224°
2026-05-07 11:52 14.51545 121.01696 56 ft 8 kts 225°
2026-05-07 11:52 14.51500 121.01650 55 ft 9 kts 225°
2026-05-07 11:53 14.51444 121.01602 54 ft 11 kts 214°
2026-05-07 11:53 14.51377 121.01577 54 ft 9 kts 158°
2026-05-07 11:53 14.51326 121.01620 55 ft 9 kts 135°
2026-05-07 11:53 14.51276 121.01672 54 ft 10 kts 133°
2026-05-07 11:54 14.51219 121.01730 53 ft 12 kts 135°
2026-05-07 11:54 14.51155 121.01798 52 ft 13 kts 135°
2026-05-07 11:54 14.51087 121.01867 51 ft 13 kts 135°
2026-05-07 11:54 14.51042 121.01912 51 ft 6 kts 148°
2026-05-07 11:55 14.50998 121.01905 50 ft 6 kts 225°
2026-05-07 11:55 14.50969 121.01859 49 ft 8 kts 240°
2026-05-07 11:55 14.50938 121.01804 49 ft 8 kts 239°
2026-05-07 11:55 14.50910 121.01755 50 ft 7 kts 239°
2026-05-07 11:56 14.50883 121.01704 50 ft 8 kts 241°
2026-05-07 11:56 14.50852 121.01647 49 ft 9 kts 240°
2026-05-07 11:56 14.50818 121.01587 50 ft 9 kts 241°
2026-05-07 11:56 14.50783 121.01523 50 ft 11 kts 240°
2026-05-07 11:57 14.50737 121.01442 47 ft 15 kts 239°
2026-05-07 11:57 14.50680 121.01341 46 ft 16 kts 240°
2026-05-07 11:57 14.50619 121.01228 41 ft 19 kts 240°
2026-05-07 11:57 14.50549 121.01102 38 ft 19 kts 240°
2026-05-07 11:58 14.50480 121.00979 35 ft 20 kts 240°
2026-05-07 11:58 14.50417 121.00864 35 ft 16 kts 240°
2026-05-07 11:58 14.50362 121.00765 36 ft 15 kts 240°
2026-05-07 11:58 14.50309 121.00670 35 ft 14 kts 244°
2026-05-07 11:59 14.50260 121.00583 34 ft 13 kts 239°
2026-05-07 11:59 14.50212 121.00497 33 ft 13 kts 240°
2026-05-07 11:59 14.50166 121.00413 32 ft 13 kts 240°
2026-05-07 11:59 14.50121 121.00333 31 ft 12 kts 240°
2026-05-07 12:00 14.50078 121.00256 30 ft 12 kts 240°
2026-05-07 12:00 14.50035 121.00178 30 ft 12 kts 240°
2026-05-07 12:00 14.49989 121.00095 28 ft 13 kts 240°
2026-05-07 12:00 14.49942 121.00008 26 ft 14 kts 240°
2026-05-07 12:01 14.49892 120.99964 26 ft 3 kts 179°
2026-05-07 12:01 14.49881 120.99966 26 ft 0 kts 163°
2026-05-07 12:01 14.49879 120.99967 26 ft 0 kts 160°
2026-05-07 12:02 14.49873 120.99970 26 ft 1 kts 158°
2026-05-07 12:02 14.49863 120.99974 26 ft 1 kts 155°
2026-05-07 12:02 14.49851 120.99980 26 ft 2 kts 152°
2026-05-07 12:02 14.49825 120.99995 25 ft 5 kts 149°
2026-05-07 12:03 14.49804 121.00032 26 ft 6 kts 88°
2026-05-07 12:03 14.49818 121.00073 28 ft 5 kts 61°
2026-05-07 12:03 14.49827 121.00089 29 ft 16 kts 60°
2026-05-07 12:03 14.50018 121.00432 31 ft 89 kts 60°
2026-05-07 12:04 14.50435 121.01177 38 ft 147 kts 60°
2026-05-07 12:04 14.51011 121.02194 383 ft 169 kts 60°
2026-05-07 12:04 14.51611 121.03213 1149 ft 168 kts 62°
2026-05-07 12:04 14.52168 121.04265 1828 ft 166 kts 63°
2026-05-07 12:05 14.52742 121.05338 2186 ft 176 kts 63°
2026-05-07 12:05 14.53369 121.06486 2548 ft 186 kts 61°
2026-05-07 12:05 14.54062 121.07741 2722 ft 207 kts 61°
2026-05-07 12:05 14.54821 121.09107 2775 ft 232 kts 60°
2026-05-07 12:06 14.55653 121.10601 3174 ft 247 kts 60°
2026-05-07 12:06 14.56552 121.12164 3778 ft 256 kts 53°
2026-05-07 12:06 14.57935 121.13351 4373 ft 265 kts 23°
2026-05-07 12:06 14.59765 121.13586 5196 ft 266 kts 357°
2026-05-07 12:07 14.61566 121.13454 6131 ft 260 kts
2026-05-07 12:07 14.63420 121.13464 6693 ft 269 kts
2026-05-07 12:07 14.65305 121.13475 7435 ft 272 kts
2026-05-07 12:07 14.67205 121.13480 8148 ft 275 kts 360°
2026-05-07 12:08 14.69134 121.13493 8870 ft 278 kts 359°
2026-05-07 12:08 14.71061 121.13214 9544 ft 282 kts 341°
2026-05-07 12:08 14.72903 121.12511 10299 ft 284 kts 339°
2026-05-07 12:08 14.74846 121.11794 10505 ft 307 kts 340°
2026-05-07 12:09 14.76937 121.11053 10657 ft 329 kts 340°
2026-05-07 12:09 14.79200 121.10240 10755 ft 351 kts 340°
2026-05-07 12:09 14.81573 121.09386 11193 ft 360 kts 340°
2026-05-07 12:09 14.83957 121.08530 11638 ft 369 kts 339°
2026-05-07 12:10 14.86442 121.07638 11860 ft 374 kts 339°
2026-05-07 12:10 14.88912 121.06785 11857 ft 370 kts 343°
2026-05-07 12:10 14.91492 121.06372 11998 ft 380 kts 354°
2026-05-07 12:10 14.94141 121.06219 12832 ft 377 kts 355°
2026-05-07 12:11 14.96796 121.06030 13402 ft 381 kts 354°
2026-05-07 12:11 14.99416 121.05833 14291 ft 376 kts 354°
2026-05-07 12:11 15.02070 121.05643 14782 ft 382 kts 355°
2026-05-07 12:11 15.04735 121.05457 15560 ft 380 kts 355°
2026-05-07 12:12 15.07401 121.05270 16060 ft 385 kts 355°
2026-05-07 12:12 15.10098 121.05082 16654 ft 387 kts 355°
2026-05-07 12:12 15.12837 121.04891 17210 ft 390 kts 356°
2026-05-07 12:12 15.15579 121.04700 17736 ft 393 kts 356°
2026-05-07 12:13 15.18337 121.04509 18251 ft 396 kts 356°
2026-05-07 12:13 15.21072 121.04319 18739 ft 399 kts 356°
2026-05-07 12:13 15.23906 121.04122 19231 ft 402 kts 356°
2026-05-07 12:13 15.26724 121.03927 19702 ft 405 kts 356°
2026-05-07 12:14 15.29531 121.03732 20157 ft 408 kts 356°
2026-05-07 12:14 15.32406 121.03532 20603 ft 411 kts 356°
2026-05-07 12:14 15.35257 121.03333 21024 ft 413 kts 357°
2026-05-07 12:14 15.38191 121.03130 21449 ft 416 kts 357°
2026-05-07 12:15 15.41096 121.02927 21852 ft 419 kts 357°
2026-05-07 12:15 15.44010 121.02711 22233 ft 422 kts 355°
2026-05-07 12:15 15.46969 121.02249 22602 ft 426 kts 349°
2026-05-07 12:15 15.49846 121.01398 22960 ft 431 kts 341°
2026-05-07 12:16 15.52585 121.00096 23301 ft 436 kts 335°
2026-05-07 12:16 15.55284 120.98624 23641 ft 439 kts 335°
2026-05-07 12:16 15.58027 120.97166 23938 ft 442 kts 335°
2026-05-07 12:16 15.60814 120.95709 24258 ft 445 kts 335°
2026-05-07 12:17 15.63583 120.94249 24561 ft 448 kts 335°
2026-05-07 12:17 15.66399 120.92757 24877 ft 450 kts 335°
2026-05-07 12:17 15.69201 120.91269 25169 ft 453 kts 335°
2026-05-07 12:17 15.72032 120.89767 25461 ft 455 kts 335°
2026-05-07 12:18 15.74865 120.88261 25743 ft 458 kts 335°
2026-05-07 12:18 15.77716 120.86745 26014 ft 460 kts 335°
2026-05-07 12:18 15.80587 120.85216 26282 ft 463 kts 335°
2026-05-07 12:18 15.83480 120.83675 26542 ft 465 kts 335°
2026-05-07 12:19 15.86373 120.82134 26793 ft 467 kts 335°
2026-05-07 12:19 15.89271 120.80589 27031 ft 470 kts 335°
2026-05-07 12:19 15.92224 120.79015 27276 ft 472 kts 335°
2026-05-07 12:19 15.95167 120.77444 27503 ft 474 kts 335°
2026-05-07 12:20 15.98104 120.75876 27727 ft 476 kts 335°
2026-05-07 12:20 16.01106 120.74273 27944 ft 478 kts 335°
2026-05-07 12:20 16.04091 120.72678 28155 ft 480 kts 335°
2026-05-07 12:20 16.07061 120.71091 28509 ft 479 kts 335°
2026-05-07 12:21 16.10011 120.69513 28842 ft 478 kts 335°
2026-05-07 12:21 16.13011 120.67909 29133 ft 478 kts 335°
2026-05-07 12:21 16.15976 120.66324 29446 ft 477 kts 335°
2026-05-07 12:21 16.18927 120.64745 29732 ft 478 kts 335°
2026-05-07 12:22 16.21923 120.63142 30022 ft 478 kts 335°
2026-05-07 12:22 16.24873 120.61562 30304 ft 478 kts 335°
2026-05-07 12:22 16.27849 120.59968 30577 ft 478 kts 335°
2026-05-07 12:22 16.30828 120.58372 30853 ft 478 kts 335°
2026-05-07 12:23 16.33805 120.56776 31121 ft 478 kts 335°
2026-05-07 12:23 16.36771 120.55186 31381 ft 478 kts 335°
2026-05-07 12:23 16.39782 120.53571 31621 ft 478 kts 335°
2026-05-07 12:23 16.42733 120.51987 31901 ft 478 kts 335°
2026-05-07 12:24 16.45743 120.50372 32170 ft 478 kts 335°
2026-05-07 12:24 16.48693 120.48788 32420 ft 478 kts 335°
2026-05-07 12:24 16.51676 120.47186 32671 ft 477 kts 335°
2026-05-07 12:24 16.54682 120.45570 32914 ft 478 kts 335°
2026-05-07 12:25 16.57660 120.43970 33150 ft 478 kts 335°
2026-05-07 12:25 16.60592 120.42394 33383 ft 478 kts 335°
2026-05-07 12:25 16.63610 120.40770 33622 ft 477 kts 335°
2026-05-07 12:25 16.66584 120.39169 33856 ft 477 kts 335°
2026-05-07 12:26 16.69501 120.37530 34078 ft 478 kts 331°
2026-05-07 12:26 16.72347 120.35606 34335 ft 478 kts 326°
2026-05-07 12:26 16.74930 120.33382 34550 ft 480 kts 317°
2026-05-07 12:26 16.77290 120.30849 34805 ft 479 kts 314°
2026-05-07 12:27 16.79576 120.28292 35033 ft 479 kts 315°
2026-05-07 12:27 16.81904 120.25758 35227 ft 479 kts 315°
2026-05-07 12:27 16.84236 120.23244 35439 ft 478 kts 315°
2026-05-07 12:27 16.86550 120.20733 35652 ft 478 kts 315°
2026-05-07 12:28 16.88882 120.18183 35849 ft 477 kts 315°
2026-05-07 12:28 16.93536 120.13088 35884 ft 480 kts 315°
2026-05-07 12:29 16.98183 120.07991 35885 ft 477 kts 315°
2026-05-07 12:29 17.02790 120.02930 35885 ft 478 kts 315°
2026-05-07 12:30 17.07441 119.97814 35885 ft 481 kts 315°
2026-05-07 12:30 17.12108 119.92677 35885 ft 482 kts 315°
2026-05-07 12:31 17.16782 119.87526 35885 ft 483 kts 315°
2026-05-07 12:31 17.21430 119.82399 35885 ft 482 kts 315°
2026-05-07 12:32 17.26116 119.77227 35885 ft 482 kts 315°
2026-05-07 12:32 17.30770 119.72086 35885 ft 482 kts 315°
2026-05-07 12:33 17.37769 119.64346 35885 ft 482 kts 315°
2026-05-07 12:33 17.42411 119.59209 35885 ft 482 kts 315°
2026-05-07 12:34 17.47070 119.54047 35885 ft 482 kts 315°
2026-05-07 12:34 17.51743 119.48867 35885 ft 482 kts 315°
2026-05-07 12:35 17.56409 119.43690 35885 ft 482 kts 315°
2026-05-07 12:35 17.61063 119.38521 35885 ft 482 kts 315°
2026-05-07 12:36 17.65704 119.33364 35885 ft 482 kts 314°
2026-05-07 12:36 17.70346 119.28202 35885 ft 482 kts 314°
2026-05-07 12:37 17.75012 119.23008 35885 ft 482 kts 314°
2026-05-07 12:37 17.79649 119.17843 35885 ft 482 kts 314°
2026-05-07 12:38 17.84254 119.12708 35885 ft 482 kts 314°
2026-05-07 12:38 17.88911 119.07512 35885 ft 482 kts 314°
2026-05-07 12:39 17.93534 119.02349 35885 ft 482 kts 314°
2026-05-07 12:39 17.98173 118.97165 35885 ft 481 kts 314°
2026-05-07 12:40 18.02781 118.92010 35885 ft 478 kts 314°
2026-05-07 12:40 18.07388 118.86851 35885 ft 476 kts 314°
2026-05-07 12:41 18.12004 118.81679 35885 ft 474 kts 313°
2026-05-07 12:41 18.16495 118.76642 35885 ft 473 kts 313°
2026-05-07 12:42 18.21060 118.71517 35885 ft 473 kts 313°
2026-05-07 12:42 18.25633 118.66380 35884 ft 474 kts 313°
2026-05-07 12:43 18.30178 118.61271 35885 ft 474 kts 313°
2026-05-07 12:43 18.34725 118.56154 35885 ft 473 kts 313°
2026-05-07 12:44 18.39294 118.51009 35885 ft 473 kts 313°
2026-05-07 12:44 18.43867 118.45853 35885 ft 473 kts 313°
2026-05-07 12:45 18.48409 118.40731 35885 ft 474 kts 313°
2026-05-07 12:45 18.52972 118.35578 35885 ft 473 kts 313°
2026-05-07 12:46 18.57513 118.30447 35885 ft 473 kts 313°
2026-05-07 12:46 18.62042 118.25326 35885 ft 473 kts 313°
2026-05-07 12:47 18.66583 118.20187 35885 ft 473 kts 313°
2026-05-07 12:47 18.71099 118.15070 35885 ft 473 kts 313°
2026-05-07 12:48 18.75658 118.09901 35885 ft 474 kts 313°
2026-05-07 12:48 18.80185 118.04765 35885 ft 473 kts 313°
2026-05-07 12:49 18.84740 117.99591 35885 ft 473 kts 313°
2026-05-07 12:49 18.89259 117.94455 35884 ft 474 kts 313°
2026-05-07 12:50 18.93831 117.89255 35885 ft 476 kts 313°
2026-05-07 12:50 18.98378 117.84077 35885 ft 479 kts 312°
2026-05-07 12:51 19.02960 117.78855 35885 ft 481 kts 312°
2026-05-07 12:51 19.07572 117.73595 35885 ft 481 kts 312°
2026-05-07 12:52 19.12174 117.68341 35885 ft 481 kts 312°
2026-05-07 12:52 19.16761 117.63100 35885 ft 480 kts 312°
2026-05-07 12:53 19.21353 117.57848 35885 ft 481 kts 312°
2026-05-07 12:53 19.25915 117.52627 35885 ft 481 kts 312°
2026-05-07 12:54 19.30521 117.47349 35885 ft 481 kts 312°
2026-05-07 12:54 19.35110 117.42087 35885 ft 481 kts 312°
2026-05-07 12:55 19.39704 117.36814 35885 ft 481 kts 312°
2026-05-07 12:55 19.44297 117.31538 35885 ft 481 kts 311°
2026-05-07 12:56 19.48888 117.26260 35885 ft 481 kts 311°
2026-05-07 12:56 19.53459 117.20998 35885 ft 481 kts 311°
2026-05-07 12:57 19.58022 117.15743 35885 ft 481 kts 311°
2026-05-07 12:57 19.62612 117.10450 35886 ft 481 kts 312°
2026-05-07 12:58 19.67159 117.05203 35897 ft 478 kts 313°
2026-05-07 12:58 19.71703 116.99956 35915 ft 473 kts 313°
2026-05-07 12:59 19.76170 116.94790 35930 ft 466 kts 314°
2026-05-07 12:59 19.80575 116.89694 35937 ft 460 kts 314°
2026-05-07 13:00 19.84970 116.84605 35936 ft 458 kts 314°
2026-05-07 13:00 19.89337 116.79544 35933 ft 459 kts 314°
2026-05-07 13:01 19.93714 116.74466 35933 ft 460 kts 314°
2026-05-07 13:01 19.98321 116.69617 35935 ft 458 kts 324°
2026-05-07 13:02 20.03949 116.66500 35940 ft 454 kts 345°
2026-05-07 13:02 20.10187 116.65100 35938 ft 454 kts 350°
2026-05-07 13:03 20.16479 116.63719 35938 ft 454 kts 349°
2026-05-07 13:03 20.22729 116.62354 35937 ft 454 kts 349°
2026-05-07 13:04 20.28983 116.61008 35936 ft 454 kts 349°
2026-05-07 13:04 20.35247 116.59662 35935 ft 454 kts 350°
2026-05-07 13:05 20.41529 116.58315 35936 ft 454 kts 350°
2026-05-07 13:05 20.47791 116.56973 35938 ft 454 kts 350°
2026-05-07 13:06 20.54065 116.55628 35939 ft 454 kts 350°
2026-05-07 13:06 20.60302 116.54291 35939 ft 454 kts 350°
2026-05-07 13:07 20.66577 116.52945 35939 ft 454 kts 350°
2026-05-07 13:07 20.72831 116.51602 35939 ft 454 kts 350°
2026-05-07 13:08 20.79114 116.50253 35939 ft 454 kts 350°
2026-05-07 13:08 20.85352 116.48911 35939 ft 454 kts 350°
2026-05-07 13:09 20.91635 116.47559 35939 ft 454 kts 350°
2026-05-07 13:09 20.97923 116.46204 35939 ft 454 kts 350°
2026-05-07 13:10 21.04145 116.44863 35939 ft 454 kts 350°
2026-05-07 13:10 21.10417 116.43510 35939 ft 454 kts 350°
2026-05-07 13:11 21.16665 116.42162 35939 ft 454 kts 350°
2026-05-07 13:11 21.22921 116.40810 35939 ft 454 kts 350°
2026-05-07 13:12 21.29181 116.39456 35939 ft 453 kts 350°
2026-05-07 13:12 21.35432 116.38103 35939 ft 453 kts 350°
2026-05-07 13:13 21.41651 116.36755 35939 ft 453 kts 350°
2026-05-07 13:13 21.47933 116.35393 35939 ft 453 kts 350°
2026-05-07 13:14 21.54132 116.33998 35938 ft 454 kts 347°
2026-05-07 13:14 21.60267 116.32055 35939 ft 455 kts 345°
2026-05-07 13:15 21.66401 116.30126 35939 ft 455 kts 345°
2026-05-07 13:15 21.72557 116.28218 35939 ft 455 kts 345°
2026-05-07 13:16 21.78712 116.26308 35939 ft 455 kts 345°
2026-05-07 13:16 21.84900 116.24391 35939 ft 455 kts 345°
2026-05-07 13:17 21.91054 116.22485 35939 ft 455 kts 345°
2026-05-07 13:17 21.97219 116.20578 35939 ft 454 kts 346°
2026-05-07 13:18 22.03484 116.19247 35939 ft 452 kts 357°
2026-05-07 13:18 22.09827 116.18987 35939 ft 452 kts 359°
2026-05-07 13:19 22.16209 116.18714 35939 ft 452 kts 359°
2026-05-07 13:19 22.22554 116.18473 35939 ft 451 kts 359°
2026-05-07 13:20 22.28899 116.18252 35939 ft 451 kts 359°
2026-05-07 13:20 22.35212 116.18037 35939 ft 451 kts 360°
2026-05-07 13:21 22.41573 116.17825 35939 ft 451 kts 360°
2026-05-07 13:21 22.47924 116.17616 35939 ft 451 kts 360°
2026-05-07 13:22 22.54248 116.17409 35939 ft 451 kts 360°
2026-05-07 13:22 22.60591 116.17201 35719 ft 457 kts 360°
2026-05-07 13:23 22.63796 116.17097 35154 ft 458 kts 360°
2026-05-07 13:23 22.66979 116.17124 34522 ft 454 kts
2026-05-07 13:23 22.70074 116.17617 33952 ft 446 kts 15°
2026-05-07 13:23 22.73019 116.18691 33785 ft 432 kts 26°
2026-05-07 13:24 22.78151 116.22064 33738 ft 438 kts 38°
2026-05-07 13:24 22.80594 116.24146 33484 ft 446 kts 39°
2026-05-07 13:24 22.83069 116.26217 33230 ft 448 kts 38°
2026-05-07 13:25 22.85582 116.28278 33041 ft 446 kts 38°
2026-05-07 13:25 22.88072 116.30324 33039 ft 444 kts 38°
2026-05-07 13:25 22.93032 116.34436 33039 ft 448 kts 38°
2026-05-07 13:26 22.98045 116.38586 33039 ft 449 kts 37°
2026-05-07 13:26 23.03045 116.42705 33038 ft 449 kts 37°
2026-05-07 13:27 23.08086 116.46870 33039 ft 449 kts 37°
2026-05-07 13:27 23.13089 116.51006 33039 ft 449 kts 37°
2026-05-07 13:28 23.18091 116.55147 33039 ft 449 kts 37°
2026-05-07 13:28 23.23132 116.59325 33039 ft 449 kts 37°
2026-05-07 13:29 23.28134 116.63474 33039 ft 449 kts 37°
2026-05-07 13:29 23.33125 116.67620 33039 ft 449 kts 37°
2026-05-07 13:30 23.38161 116.71807 33039 ft 449 kts 37°
2026-05-07 13:30 23.43110 116.75990 33038 ft 449 kts 40°
2026-05-07 13:31 23.47570 116.80798 33039 ft 449 kts 46°
2026-05-07 13:31 23.51950 116.85751 33039 ft 449 kts 46°
2026-05-07 13:32 23.56319 116.90669 33039 ft 449 kts 46°
2026-05-07 13:32 23.60656 116.95584 33039 ft 450 kts 46°
2026-05-07 13:33 23.65033 117.00554 33039 ft 452 kts 47°
2026-05-07 13:33 23.69426 117.05550 33039 ft 455 kts 47°
2026-05-07 13:34 23.76077 117.13130 33039 ft 460 kts 47°
2026-05-07 13:35 23.80785 117.17952 33039 ft 462 kts 41°
2026-05-07 13:35 23.85646 117.22578 33039 ft 460 kts 43°
2026-05-07 13:36 23.90444 117.27254 33039 ft 460 kts 43°
2026-05-07 13:36 23.95280 117.31966 33039 ft 461 kts 43°
2026-05-07 13:37 24.00080 117.36658 33039 ft 461 kts 43°
2026-05-07 13:37 24.04869 117.41346 33039 ft 461 kts 43°
2026-05-07 13:38 24.09692 117.46075 33039 ft 461 kts 43°
2026-05-07 13:38 24.14477 117.50852 33038 ft 460 kts 46°
2026-05-07 13:39 24.18802 117.56053 33039 ft 459 kts 49°
2026-05-07 13:39 24.23131 117.61275 33039 ft 460 kts 48°
2026-05-07 13:40 24.27447 117.66457 33039 ft 460 kts 49°
2026-05-07 13:40 24.31789 117.71682 33039 ft 459 kts 49°
2026-05-07 13:41 24.36119 117.76895 33039 ft 459 kts 49°
2026-05-07 13:41 24.40449 117.82113 33039 ft 459 kts 49°
2026-05-07 13:42 24.44763 117.87315 33039 ft 459 kts 49°
2026-05-07 13:42 24.49088 117.92537 33039 ft 460 kts 49°
2026-05-07 13:43 24.53388 117.97734 33039 ft 460 kts 49°
2026-05-07 13:43 24.57729 118.02960 33039 ft 460 kts 48°
2026-05-07 13:44 24.62216 118.08025 33039 ft 460 kts 46°
2026-05-07 13:44 24.66680 118.13071 33039 ft 460 kts 47°
2026-05-07 13:45 24.71185 118.18189 33039 ft 460 kts 47°
2026-05-07 13:45 24.75643 118.23264 33039 ft 460 kts 47°
2026-05-07 13:46 24.80115 118.28363 33039 ft 460 kts 47°
2026-05-07 13:46 24.84563 118.33441 33039 ft 460 kts 47°
2026-05-07 13:47 24.89041 118.38561 33039 ft 460 kts 47°
2026-05-07 13:47 24.93506 118.43672 33039 ft 460 kts 47°
2026-05-07 13:48 24.97959 118.48774 33039 ft 459 kts 47°
2026-05-07 13:48 25.02381 118.53847 33038 ft 457 kts 47°
2026-05-07 13:49 25.06817 118.58941 33039 ft 456 kts 46°
2026-05-07 13:49 25.11205 118.64027 33039 ft 455 kts 47°
2026-05-07 13:50 25.15480 118.69218 33039 ft 455 kts 48°
2026-05-07 13:50 25.19757 118.74390 33039 ft 456 kts 48°
2026-05-07 13:51 25.24058 118.79590 33039 ft 455 kts 48°
2026-05-07 13:51 25.28336 118.84767 33043 ft 455 kts 48°
2026-05-07 13:52 25.32635 118.89975 33053 ft 457 kts 49°
2026-05-07 13:52 25.36973 118.95158 33061 ft 460 kts 47°
2026-05-07 13:53 25.41406 119.00292 33065 ft 464 kts 48°
2026-05-07 13:53 25.45894 119.05531 33066 ft 469 kts 48°
2026-05-07 13:54 25.50417 119.10818 33065 ft 469 kts 48°
2026-05-07 13:54 25.54913 119.16080 33066 ft 468 kts 48°
2026-05-07 13:55 25.59405 119.21345 33066 ft 468 kts 48°
2026-05-07 13:55 25.63873 119.26589 33066 ft 468 kts 48°
2026-05-07 13:56 25.68387 119.31894 33066 ft 468 kts 48°
2026-05-07 13:56 25.73080 119.36882 33066 ft 469 kts 37°
2026-05-07 13:56 25.75861 119.38808 33065 ft 471 kts 26°
2026-05-07 13:57 25.78908 119.40140 33070 ft 472 kts 18°
2026-05-07 13:57 25.85266 119.42234 33066 ft 472 kts 17°
2026-05-07 13:58 25.91547 119.44417 33065 ft 472 kts 18°
2026-05-07 13:58 25.97830 119.46571 33066 ft 472 kts 17°
2026-05-07 13:59 26.04140 119.48728 33066 ft 472 kts 17°
2026-05-07 13:59 26.10444 119.50883 33066 ft 472 kts 17°
2026-05-07 14:00 26.16777 119.53047 33066 ft 472 kts 18°
2026-05-07 14:00 26.22909 119.55763 33064 ft 471 kts 28°
2026-05-07 14:01 26.28510 119.59542 33066 ft 470 kts 33°
2026-05-07 14:01 26.34132 119.63409 33066 ft 471 kts 32°
2026-05-07 14:02 26.39735 119.67286 33066 ft 470 kts 33°
2026-05-07 14:02 26.45313 119.71178 33066 ft 470 kts 33°
2026-05-07 14:03 26.50897 119.75085 33066 ft 470 kts 33°
2026-05-07 14:03 26.56458 119.78983 33066 ft 470 kts 33°
2026-05-07 14:04 26.62026 119.82895 33066 ft 470 kts 33°
2026-05-07 14:04 26.67596 119.86814 33066 ft 470 kts 33°
2026-05-07 14:05 26.73117 119.90704 33066 ft 470 kts 33°
2026-05-07 14:05 26.78694 119.94638 33066 ft 470 kts 33°
2026-05-07 14:06 26.84284 119.98587 33066 ft 470 kts 33°
2026-05-07 14:06 26.89829 120.02509 33066 ft 470 kts 33°
2026-05-07 14:07 26.95337 120.06408 33065 ft 463 kts 33°
2026-05-07 14:07 27.00781 120.10268 33066 ft 457 kts 33°
2026-05-07 14:08 27.06156 120.14083 33066 ft 454 kts 33°
2026-05-07 14:08 27.11529 120.17902 33066 ft 456 kts 33°
2026-05-07 14:09 27.16922 120.21720 33066 ft 456 kts 33°
2026-05-07 14:09 27.22292 120.25503 33066 ft 456 kts 33°
2026-05-07 14:10 27.27701 120.29324 33066 ft 456 kts 33°
2026-05-07 14:10 27.33118 120.33155 33066 ft 456 kts 33°
2026-05-07 14:11 27.38492 120.36961 33066 ft 456 kts 33°
2026-05-07 14:11 27.43899 120.40805 33066 ft 456 kts 33°